• In Portugal
  • List of Countries
  • For 7 days
  • Water Temperature
  • Satellite Maps
  • Weather Map
  • Weather Widgets
  • user-avatar
    Login

    Hourly Weather Ahwaz

    Today, 22 January, Monday

    Time Temperature Precipitation Wind Pressure Humidity
    00:00 +13°C° 0 mm 3 mps 765 mmHg 37%
    01:00 +12°C° 0 mm 3 mps 764 mmHg 38%
    02:00 +12°C° 0 mm 3 mps 764 mmHg 39%
    03:00 +12°C° 0 mm 3 mps 764 mmHg 40%
    04:00 +11°C° 0 mm 3 mps 764 mmHg 41%
    05:00 +11°C° 0 mm 3 mps 764 mmHg 42%
    06:00 +11°C° 0 mm 3 mps 763 mmHg 43%
    07:00 +12°C° 0 mm 3 mps 764 mmHg 40%
    08:00 +13°C° 0 mm 3 mps 764 mmHg 37%
    09:00 +14°C° 0 mm 3 mps 764 mmHg 35%
    10:00 +16°C° 0 mm 3 mps 764 mmHg 31%
    11:00 +17°C° 0 mm 2 mps 763 mmHg 28%
    12:00 +19°C° 0 mm 2 mps 763 mmHg 24%
    13:00 +20°C° 0 mm 1 mps 762 mmHg 23%
    14:00 +21°C° 0 mm 1 mps 762 mmHg 22%
    15:00 +19°C° 0 mm 0 mps 762 mmHg 20%
    16:00 +18°C° 0 mm 0 mps 762 mmHg 22%
    17:00 +20°C° 0 mm 1 mps 762 mmHg 24%
    18:00 +19°C° 0 mm 1 mps 762 mmHg 25%
    19:00 +19°C° 0 mm 1 mps 762 mmHg 26%
    20:00 +18°C° 0 mm 1 mps 762 mmHg 26%
    21:00 +17°C° 0 mm 2 mps 762 mmHg 27%
    22:00 +16°C° 0 mm 2 mps 762 mmHg 28%
    23:00 +16°C° 0 mm 2 mps 762 mmHg 30%

    Tomorrow, 23 January, Tuesday

    Time Temperature Precipitation Wind Pressure Humidity
    00:00 +15°C° 0 mm 2 mps 762 mmHg 31%
    01:00 +15°C° 0 mm 2 mps 761 mmHg 33%
    02:00 +14°C° 0 mm 2 mps 761 mmHg 35%
    03:00 +14°C° 0 mm 2 mps 761 mmHg 37%
    04:00 +14°C° 0 mm 2 mps 761 mmHg 39%
    05:00 +13°C° 0 mm 3 mps 761 mmHg 41%
    06:00 +13°C° 0 mm 3 mps 761 mmHg 43%
    07:00 +14°C° 0 mm 3 mps 761 mmHg 42%
    08:00 +15°C° 0 mm 4 mps 761 mmHg 41%
    09:00 +17°C° 0 mm 4 mps 761 mmHg 40%
    10:00 +17°C° 0 mm 5 mps 761 mmHg 35%
    11:00 +20°C° 0 mm 5 mps 760 mmHg 30%
    12:00 +22°C° 0 mm 6 mps 760 mmHg 26%
    13:00 +22°C° 0 mm 6 mps 759 mmHg 25%
    14:00 +23°C° 0 mm 7 mps 759 mmHg 24%
    15:00 +23°C° 0 mm 8 mps 758 mmHg 24%
    16:00 +22°C° 0 mm 7 mps 758 mmHg 28%
    17:00 +21°C° 0 mm 6 mps 758 mmHg 32%
    18:00 +20°C° 0 mm 6 mps 758 mmHg 36%
    19:00 +19°C° 0 mm 5 mps 758 mmHg 42%
    20:00 +19°C° 0 mm 5 mps 759 mmHg 47%
    21:00 +17°C° 0 mm 5 mps 759 mmHg 53%
    22:00 +17°C° 0 mm 5 mps 759 mmHg 56%
    23:00 +17°C° 0 mm 5 mps 759 mmHg 59%

    Day after tomorrow, 24 January, Wednesday

    Time Temperature Precipitation Wind Pressure Humidity
    00:00 +16°C° 0 mm 5 mps 759 mmHg 63%
    01:00 +17°C° 0 mm 4 mps 759 mmHg 66%
    02:00 +15°C° 0 mm 4 mps 759 mmHg 70%
    03:00 +15°C° 0 mm 4 mps 759 mmHg 73%
    04:00 +15°C° 0 mm 4 mps 760 mmHg 75%
    05:00 +14°C° 0 mm 4 mps 760 mmHg 76%
    06:00 +14°C° 0 mm 3 mps 760 mmHg 78%
    07:00 +15°C° 0 mm 4 mps 760 mmHg 72%
    08:00 +17°C° 0 mm 4 mps 761 mmHg 66%
    09:00 +18°C° 0 mm 4 mps 761 mmHg 59%
    10:00 +20°C° 0 mm 3 mps 761 mmHg 50%
    11:00 +21°C° 0 mm 3 mps 761 mmHg 40%
    12:00 +24°C° 0 mm 3 mps 761 mmHg 31%
    13:00 +24°C° 0 mm 3 mps 760 mmHg 28%
    14:00 +25°C° 0 mm 3 mps 760 mmHg 24%
    15:00 +26°C° 0 mm 2 mps 760 mmHg 21%
    16:00 +24°C° 0 mm 2 mps 760 mmHg 22%
    17:00 +23°C° 0 mm 2 mps 760 mmHg 23%
    18:00 +21°C° 0 mm 2 mps 760 mmHg 25%
    19:00 +21°C° 0 mm 2 mps 761 mmHg 26%
    20:00 +20°C° 0 mm 2 mps 761 mmHg 26%
    21:00 +19°C° 0 mm 2 mps 761 mmHg 27%
    22:00 +19°C° 0 mm 2 mps 761 mmHg 29%
    23:00 +18°C° 0 mm 2 mps 761 mmHg 30%

    25 January, Thursday

    Time Temperature Precipitation Wind Pressure Humidity
    00:00 +18°C° 0 mm 2 mps 761 mmHg 32%
    01:00 +17°C° 0 mm 2 mps 761 mmHg 34%
    02:00 +17°C° 0 mm 2 mps 761 mmHg 35%
    03:00 +17°C° 0 mm 2 mps 761 mmHg 37%
    04:00 +16°C° 0 mm 2 mps 761 mmHg 39%
    05:00 +16°C° 0 mm 2 mps 761 mmHg 40%
    06:00 +15°C° 0 mm 2 mps 761 mmHg 42%
    07:00 +18°C° 0 mm 1 mps 761 mmHg 39%
    08:00 +19°C° 0 mm 1 mps 761 mmHg 36%
    09:00 +21°C° 0 mm 1 mps 761 mmHg 32%
    10:00 +22°C° 0 mm 1 mps 761 mmHg 29%
    11:00 +24°C° 0 mm 1 mps 761 mmHg 25%
    12:00 +25°C° 0 mm 2 mps 760 mmHg 22%
    13:00 +26°C° 0 mm 2 mps 760 mmHg 20%
    14:00 +26°C° 0 mm 2 mps 759 mmHg 19%
    15:00 +27°C° 0 mm 3 mps 758 mmHg 17%
    16:00 +26°C° 0 mm 3 mps 759 mmHg 18%
    17:00 +26°C° 0 mm 3 mps 759 mmHg 19%
    18:00 +25°C° 0 mm 3 mps 759 mmHg 20%
    19:00 +24°C° 0 mm 3 mps 759 mmHg 22%
    20:00 +22°C° 0 mm 3 mps 759 mmHg 24%
    21:00 +22°C° 0 mm 3 mps 759 mmHg 26%
    22:00 +21°C° 0 mm 3 mps 759 mmHg 28%
    23:00 +20°C° 0 mm 3 mps 759 mmHg 31%

    26 January, Friday

    Time Temperature Precipitation Wind Pressure Humidity
    00:00 +20°C° 0 mm 4 mps 759 mmHg 34%
    01:00 +19°C° 0 mm 3 mps 759 mmHg 35%
    02:00 +19°C° 0 mm 3 mps 759 mmHg 37%
    03:00 +19°C° 0 mm 3 mps 759 mmHg 38%
    04:00 +19°C° 0 mm 3 mps 759 mmHg 38%
    05:00 +19°C° 0 mm 3 mps 759 mmHg 38%
    06:00 +19°C° 0 mm 3 mps 759 mmHg 38%
    07:00 +20°C° 0 mm 3 mps 759 mmHg 37%
    08:00 +20°C° 0 mm 4 mps 759 mmHg 37%
    09:00 +21°C° 0 mm 4 mps 759 mmHg 37%
    10:00 +22°C° 0 mm 4 mps 759 mmHg 35%
    11:00 +23°C° 0 mm 4 mps 759 mmHg 33%
    12:00 +25°C° 0 mm 4 mps 758 mmHg 31%
    13:00 +25°C° 0 mm 4 mps 758 mmHg 30%
    14:00 +26°C° 0 mm 5 mps 758 mmHg 28%
    15:00 +26°C° 0 mm 5 mps 757 mmHg 26%
    16:00 +25°C° 0 mm 4 mps 757 mmHg 29%
    17:00 +23°C° 0 mm 4 mps 757 mmHg 32%
    18:00 +22°C° 0 mm 3 mps 757 mmHg 34%
    19:00 +21°C° 0 mm 4 mps 758 mmHg 37%
    20:00 +21°C° 0 mm 4 mps 758 mmHg 39%
    21:00 +20°C° 0 mm 4 mps 758 mmHg 42%
    22:00 +19°C° 0 mm 5 mps 759 mmHg 39%
    23:00 +19°C° 0 mm 5 mps 759 mmHg 37%

    27 January, Saturday

    Time Temperature Precipitation Wind Pressure Humidity
    00:00 +17°C° 0 mm 6 mps 759 mmHg 34%
    01:00 +17°C° 0 mm 5 mps 759 mmHg 33%
    02:00 +16°C° 0 mm 5 mps 759 mmHg 32%
    03:00 +17°C° 0 mm 4 mps 759 mmHg 31%
    04:00 +15°C° 0 mm 4 mps 759 mmHg 32%
    05:00 +16°C° 0 mm 3 mps 759 mmHg 33%
    06:00 +14°C° 0 mm 3 mps 760 mmHg 34%
    07:00 +16°C° 0 mm 2 mps 760 mmHg 32%
    08:00 +18°C° 0 mm 2 mps 761 mmHg 29%
    09:00 +19°C° 0 mm 2 mps 761 mmHg 27%
    10:00 +20°C° 0 mm 2 mps 761 mmHg 25%
    11:00 +21°C° 0 mm 3 mps 761 mmHg 23%
    12:00 +22°C° 0 mm 3 mps 761 mmHg 21%
    13:00 +22°C° 0 mm 3 mps 760 mmHg 20%
    14:00 +22°C° 0 mm 3 mps 760 mmHg 19%
    15:00 +22°C° 0 mm 3 mps 759 mmHg 18%
    16:00 +21°C° 0 mm 3 mps 760 mmHg 19%
    17:00 +21°C° 0 mm 2 mps 760 mmHg 21%
    18:00 +20°C° 0 mm 2 mps 760 mmHg 22%
    19:00 +19°C° 0 mm 2 mps 760 mmHg 23%
    20:00 +19°C° 0 mm 2 mps 760 mmHg 24%
    21:00 +18°C° 0 mm 3 mps 760 mmHg 25%
    22:00 +18°C° 0 mm 4 mps 760 mmHg 27%
    23:00 +16°C° 0 mm 5 mps 760 mmHg 29%
    Show more